EN

Hourly Weather Floresta

Today, 8 March, Monday

Time Temperature Precipitation Wind Pressure Humidity
00:00 +11°C° 0 mm 1 mps 554 mmHg 94%
01:00 +11°C° 0 mm 1 mps 553 mmHg 94%
02:00 +11°C° 0 mm 1 mps 553 mmHg 94%
03:00 +11°C° 0 mm 1 mps 553 mmHg 94%
04:00 +10°C° 0 mm 1 mps 553 mmHg 94%
05:00 +11°C° 0 mm 1 mps 553 mmHg 93%
06:00 +11°C° 0 mm 1 mps 554 mmHg 92%
07:00 +12°C° 0 mm 1 mps 554 mmHg 92%
08:00 +14°C° 0 mm 1 mps 556 mmHg 82%
09:00 +16°C° 0 mm 1 mps 557 mmHg 73%
10:00 +19°C° 0 mm 1 mps 559 mmHg 63%
11:00 +19°C° 0.1 mm 2 mps 559 mmHg 61%
12:00 +19°C° 0.1 mm 2 mps 558 mmHg 60%
13:00 +19°C° 0.1 mm 2 mps 558 mmHg 58%
14:00 +19°C° 0.3 mm 2 mps 557 mmHg 62%
15:00 +18°C° 0.3 mm 2 mps 556 mmHg 65%
16:00 +18°C° 0.3 mm 2 mps 556 mmHg 69%
17:00 +16°C° 0.3 mm 2 mps 555 mmHg 76%
18:00 +15°C° 0.3 mm 1 mps 555 mmHg 83%
19:00 +13°C° 0.3 mm 1 mps 554 mmHg 90%
20:00 +13°C° 0.1 mm 1 mps 555 mmHg 90%
21:00 +12°C° 0.1 mm 1 mps 555 mmHg 91%
22:00 +12°C° 0.1 mm 1 mps 555 mmHg 92%
23:00 +10°C° 0 mm 0 mps 554 mmHg 91%

Tomorrow, 9 March, Tuesday

Time Temperature Precipitation Wind Pressure Humidity
00:00 +10°C° 0 mm 0 mps 554 mmHg 90%
01:00 +10°C° 0 mm 0 mps 553 mmHg 89%
02:00 +10°C° 0 mm 0 mps 553 mmHg 90%
03:00 +9°C° 0 mm 0 mps 553 mmHg 90%
04:00 +9°C° 0 mm 0 mps 552 mmHg 90%
05:00 +10°C° 0 mm 0 mps 553 mmHg 87%
06:00 +10°C° 0 mm 0 mps 554 mmHg 85%
07:00 +11°C° 0 mm 0 mps 554 mmHg 83%
08:00 +13°C° 0 mm 0 mps 556 mmHg 77%
09:00 +15°C° 0 mm 0 mps 557 mmHg 72%
10:00 +17°C° 0 mm 0 mps 559 mmHg 66%
11:00 +20°C° 0.2 mm 1 mps 558 mmHg 64%
12:00 +21°C° 0.2 mm 1 mps 558 mmHg 63%
13:00 +21°C° 0.2 mm 1 mps 558 mmHg 61%
14:00 +20°C° 0.5 mm 1 mps 556 mmHg 68%
15:00 +19°C° 0.5 mm 1 mps 555 mmHg 75%
16:00 +16°C° 0.5 mm 2 mps 554 mmHg 83%
17:00 +15°C° 0.7 mm 1 mps 554 mmHg 86%
18:00 +14°C° 0.7 mm 1 mps 554 mmHg 90%
19:00 +13°C° 0.7 mm 0 mps 554 mmHg 94%
20:00 +12°C° 0.4 mm 0 mps 554 mmHg 94%
21:00 +12°C° 0.4 mm 0 mps 554 mmHg 94%
22:00 +11°C° 0.4 mm 0 mps 555 mmHg 95%
23:00 +11°C° 0.1 mm 0 mps 554 mmHg 95%

Day after tomorrow, 10 March, Wednesday

Time Temperature Precipitation Wind Pressure Humidity
00:00 +11°C° 0.1 mm 0 mps 554 mmHg 95%
01:00 +10°C° 0.1 mm 0 mps 553 mmHg 95%
02:00 +10°C° 0 mm 0 mps 553 mmHg 95%
03:00 +10°C° 0 mm 0 mps 553 mmHg 95%
04:00 +10°C° 0 mm 0 mps 553 mmHg 95%
05:00 +10°C° 0 mm 0 mps 553 mmHg 94%
06:00 +11°C° 0 mm 0 mps 554 mmHg 93%
07:00 +12°C° 0 mm 1 mps 555 mmHg 92%
08:00 +13°C° 0 mm 0 mps 556 mmHg 84%
09:00 +16°C° 0 mm 0 mps 557 mmHg 76%
10:00 +18°C° 0 mm 0 mps 559 mmHg 68%
11:00 +20°C° 0.4 mm 1 mps 558 mmHg 70%
12:00 +19°C° 0.4 mm 1 mps 557 mmHg 72%
13:00 +18°C° 0.4 mm 2 mps 556 mmHg 74%
14:00 +18°C° 1.2 mm 1 mps 555 mmHg 79%
15:00 +16°C° 1.2 mm 1 mps 554 mmHg 85%
16:00 +15°C° 1.2 mm 1 mps 553 mmHg 91%
17:00 +14°C° 1.2 mm 1 mps 553 mmHg 92%
18:00 +14°C° 1.2 mm 1 mps 553 mmHg 94%
19:00 +12°C° 1.2 mm 0 mps 554 mmHg 96%
20:00 +12°C° 0.4 mm 0 mps 554 mmHg 96%
21:00 +12°C° 0.4 mm 0 mps 554 mmHg 95%
22:00 +12°C° 0.4 mm 0 mps 555 mmHg 95%
23:00 +12°C° 0.5 mm 0 mps 555 mmHg 96%

11 March, Thursday

Time Temperature Precipitation Wind Pressure Humidity
00:00 +12°C° 0.5 mm 0 mps 554 mmHg 96%
01:00 +12°C° 0.5 mm 0 mps 554 mmHg 96%
02:00 +11°C° 1.2 mm 0 mps 554 mmHg 96%
03:00 +11°C° 1.2 mm 0 mps 554 mmHg 96%
04:00 +11°C° 1.2 mm 0 mps 554 mmHg 96%
05:00 +11°C° 0.3 mm 0 mps 554 mmHg 95%
06:00 +11°C° 0.3 mm 0 mps 554 mmHg 94%
07:00 +11°C° 0.3 mm 0 mps 555 mmHg 93%
08:00 +13°C° 0.2 mm 0 mps 556 mmHg 87%
09:00 +15°C° 0.2 mm 0 mps 557 mmHg 81%
10:00 +16°C° 0.2 mm 0 mps 558 mmHg 75%
11:00 +18°C° 0.8 mm 1 mps 557 mmHg 78%
12:00 +16°C° 0.8 mm 1 mps 556 mmHg 81%
13:00 +16°C° 0.8 mm 1 mps 556 mmHg 83%
14:00 +16°C° 1.2 mm 1 mps 555 mmHg 86%
15:00 +15°C° 1.2 mm 1 mps 554 mmHg 89%
16:00 +15°C° 1.2 mm 1 mps 553 mmHg 92%
17:00 +14°C° 0.6 mm 1 mps 553 mmHg 93%
18:00 +13°C° 0.6 mm 0 mps 554 mmHg 94%
19:00 +12°C° 0.6 mm 0 mps 554 mmHg 96%
20:00 +12°C° 0.4 mm 0 mps 554 mmHg 96%
21:00 +12°C° 0.4 mm 0 mps 554 mmHg 96%
22:00 +12°C° 0.4 mm 0 mps 555 mmHg 96%
23:00 +12°C° 0.4 mm 0 mps 554 mmHg 97%

12 March, Friday

Time Temperature Precipitation Wind Pressure Humidity
00:00 +11°C° 0.4 mm 0 mps 554 mmHg 97%
01:00 +11°C° 0.4 mm 0 mps 554 mmHg 97%
02:00 +11°C° 0.4 mm 0 mps 554 mmHg 97%
03:00 +11°C° 0.4 mm 0 mps 554 mmHg 97%
04:00 +11°C° 0.4 mm 0 mps 554 mmHg 97%
05:00 +11°C° 0.6 mm 0 mps 554 mmHg 97%
06:00 +12°C° 0.6 mm 0 mps 554 mmHg 96%
07:00 +12°C° 0.6 mm 0 mps 555 mmHg 96%
08:00 +12°C° 0.4 mm 0 mps 555 mmHg 94%
09:00 +14°C° 0.4 mm 1 mps 556 mmHg 92%
10:00 +14°C° 0.4 mm 1 mps 557 mmHg 89%
11:00 +15°C° 0.5 mm 1 mps 556 mmHg 88%
12:00 +15°C° 0.5 mm 1 mps 556 mmHg 87%
13:00 +16°C° 0.5 mm 1 mps 556 mmHg 85%
14:00 +15°C° 1.1 mm 1 mps 555 mmHg 88%
15:00 +15°C° 1.1 mm 1 mps 554 mmHg 91%
16:00 +14°C° 1.1 mm 1 mps 553 mmHg 94%
17:00 +14°C° 1.2 mm 1 mps 554 mmHg 95%
18:00 +13°C° 1.2 mm 1 mps 554 mmHg 96%
19:00 +12°C° 1.2 mm 0 mps 554 mmHg 97%
20:00 +12°C° 1.4 mm 0 mps 554 mmHg 97%
21:00 +12°C° 1.4 mm 0 mps 555 mmHg 97%
22:00 +12°C° 1.4 mm 0 mps 555 mmHg 97%
23:00 +12°C° 1.6 mm 0 mps 555 mmHg 97%

13 March, Saturday

Time Temperature Precipitation Wind Pressure Humidity
00:00 +11°C° 1.6 mm 0 mps 554 mmHg 97%
01:00 +11°C° 1.6 mm 0 mps 554 mmHg 97%
02:00 +11°C° 1.1 mm 0 mps 554 mmHg 96%
03:00 +11°C° 1.1 mm 0 mps 554 mmHg 96%
04:00 +11°C° 1.1 mm 0 mps 553 mmHg 96%
05:00 +11°C° 0.3 mm 0 mps 554 mmHg 95%
06:00 +11°C° 0.3 mm 0 mps 554 mmHg 94%
07:00 +11°C° 0.3 mm 0 mps 555 mmHg 94%
08:00 +13°C° 0.2 mm 0 mps 556 mmHg 88%
09:00 +16°C° 0.2 mm 1 mps 557 mmHg 83%
10:00 +19°C° 0.2 mm 1 mps 558 mmHg 77%
11:00 +18°C° 0.9 mm 1 mps 558 mmHg 79%
12:00 +18°C° 0.9 mm 1 mps 557 mmHg 81%
13:00 +18°C° 0.9 mm 1 mps 556 mmHg 82%
14:00 +16°C° 1.4 mm 1 mps 555 mmHg 85%
15:00 +16°C° 1.4 mm 1 mps 554 mmHg 88%
16:00 +15°C° 1.4 mm 1 mps 554 mmHg 91%
17:00 +14°C° 1.7 mm 1 mps 554 mmHg 93%
18:00 +14°C° 1.7 mm 1 mps 554 mmHg 95%
19:00 +13°C° 1.7 mm 1 mps 554 mmHg 97%
20:00 +13°C° 1.8 mm 1 mps 554 mmHg 97%
21:00 +13°C° 1.8 mm 1 mps 555 mmHg 97%
22:00 +13°C° 1.8 mm 1 mps 555 mmHg 97%
23:00 +13°C° 1.9 mm 1 mps 555 mmHg 97%
Show more

We Need Your Consent

Meteoprog and our Service Providers may store and access personal data such as cookies, device identifiers or other similar technologies on your device and process such data to personalise content and ads, as well as provide social media features and to analyse the traffic.

  • Store and/or access information on your device

    Cookies, device identifiers or other information can be stored or accessed on your device for the purposes indicated above.

  • Personalised ads and content, ad and content measurement, audience insights, and products development

    Ads and content can be personalised based on a profile. More data can be added to better personalise ads and content. Ad and content performance can be measured. Insights about the audience who saw the ads and content can be derived. Such data can be used to develop or improve user’s experience, systems and software.

By clicking ‘I Agree’ you will allow the use of indicated cookies, device identifiers, web beacons or other similar technologies. Your settings can be changed in the browser on your device.

For certain purposes, legitimate interests may be relied on, rather than consent. You can read more about this in our Privacy and Cookie Policy.